Regional Weather Roundup
Issued by NWS

Home | Current Version | Previous Version | Graphics & Text | Print | Product List | Glossary On
Versions: 1 2 3 4 5 6 7 8 9 10 11 12 13 14 15 16 17 18 19 20 21 22 23 24 25 26 27 28 29 30 31 32 33 34 35 36 37 38 39 40 41 42 43 44 45 46 47 48 49 50
000
ASUS45 KCYS 201110
RWRWY

WYOMING REGIONAL WEATHER ROUNDUP
NATIONAL WEATHER SERVICE CHEYENNE WY
500 AM MDT SAT SEP 20 2014

NOTE:  "FAIR" INDICATES FEW OR NO CLOUDS BELOW 12,000 FEET
WITH NO SIGNIFICANT WEATHER AND/OR OBSTRUCTIONS TO VISIBILITY.

WYZ001-201200-
YELLOWSTONE NATIONAL PARK

CITY           SKY/WX    TMP DP  RH WIND       PRES   REMARKS
LK YELLOWSTONE   N/A     35  34  96 CALM      30.38R
W YELLOWSTONE  NOT AVBL

$$
WYZ002>013-054>058-071-098>099-201200-
NORTHERN WYOMING

CITY           SKY/WX    TMP DP  RH WIND       PRES   REMARKS
JACKSON        CLEAR     39  37  93 NE3       30.32R
CODY             N/A    N/A N/A N/A MISG        N/A
GREYBULL       CLEAR     50  47  89 SE5       30.13R
WORLAND        CLEAR     50  44  80 S3        30.14R
SHERIDAN       CLEAR     54  44  69 W6        30.13R
BUFFALO        CLEAR     54  43  66 W7        30.17R
GILLETTE       CLEAR     57  46  66 W12       30.11R
HULETT         FAIR      55  45  67 MISG      30.11
NEWCASTLE      FAIR      54  43  66 N8        30.11

$$
WYZ014>020-022>026-101>103-201200-
CENTRAL WYOMING

CITY           SKY/WX    TMP DP  RH WIND       PRES   REMARKS
BIG PINEY      CLEAR     34  30  85 NW6       30.31S WCI  29
PINEDALE       SUNNY     36  34  93 NW5       30.32R WCI  32
DUBOIS         FAIR      43  34  70 NW14      30.31S
LANDER         CLEAR     55  35  47 W10       30.21R
RIVERTON       CLEAR     54  42  64 NE8       30.21R
CASPER         CLEAR     45  40  82 S5        30.20R
DOUGLAS        CLEAR     47  42  83 N3        30.18R

$$
WYZ021-027>030-104>119-201200-
SOUTHERN WYOMING

CITY           SKY/WX    TMP DP  RH WIND       PRES   REMARKS
EVANSTON       CLEAR     50  37  61 E5        30.30S
KEMMERER       SUNNY     43  36  75 NW9       30.31S
FORT BRIDGER   FAIR      58  37  45 W5        30.32S
ROCK SPRINGS   CLEAR     49  34  56 NW5       30.28S
DIXON          FAIR      42  36  79 CALM      30.29S
RAWLINS        CLEAR     47  33  58 W5        30.27R
SARATOGA       FAIR      43  34  70 SE5       30.28R
LARAMIE        CLEAR     41  35  79 CALM      30.27R
CHEYENNE       CLEAR     56  44  64 NW10      30.21R
TORRINGTON     CLEAR     54  46  74 NW12      30.12R
PINE BLUFFS    FAIR      52  46  82 NW9       30.16R

$$



USA.gov is the U.S. government's official web portal to all federal, state and local government web resources and services.